Showing default

HULIANWANG DIGUI-159, 68133

Orbit data source: Space-Track

HULIANWANG DIGUI-159, 68133 is a payload satellite owned by Zhongguo Xingwang (CN) in LEO that was launched on Thu, 12 Mar 2026 UTC via a CHANG ZHENG 8A launch vehicle from the Wenchang Satellite Launch Center (WSC). Payload-class satellites include a variety of spacecraft equipped with specific instruments for various scientific and technological missions. These include communications satellites like Starlink; space stations such as the ISS; scientific satellites like the Hubble; Earth observation satellites from companies like Planet Labs, Umbra, and HawkEye 360; GPS; miniature CubeSats for education and research; and military/defense satellites.

Loading next visibility...
Identifier
68133, 2026-047E
Orbit
LEO
Country
Flag of CNCN / PRC
Related business
Manufacturer
CAST?
Mission
Operational spacecraft
Bus & Motor
XINGWANG C, Unknown motor
Mass
~700 kg wet, ~700 kg dry
Launch date (UTC)
2026-03-12 (2 months ago)
Launch vehicle
CHANG ZHENG 8A
Launch site
Wenchang Satellite Launch Center (WSC)
Object type
Payload
Rocket body
Debris
Shape & HBR
Unknown shape, 1.1 m
Radar Cross Section
RCS unknown

Expand to show TLE details & history
Last TLE update: 21 hours ago

TLE from 21 hours ago
0 HULIANWANG DIGUI-159
1 68133U 26047E   26118.70392520 -.00000131  00000-0 -40235-5 0  9992
2 68133  49.9903 233.9898 0001965 327.4738  32.6019 13.43969854  6485
Epoch: 2026-04-28T16:53Z
TLE epoch observation values (Epoch: 2026-04-28T16:53:39.137Z)
Latitude
-0.00001°
Longitude
123.9013°
Altitude
1,093.799 km
Speed
7.307 km/s
True Right ascension
15h 35m 57s
True Declination
0° 00' 00"
Sunlit
Object was in full shadow at epoch
Visualization orbit readout
Latitude
Unknown
Longitude
Unknown
Altitude
Unknown
Speed
Unknown
Apparent Right ascension
Unknown
Apparent Declination
Unknown
Sunlit
N/A
Visualization observer readout
Local Sidereal Time
21:25:35
Azimuth
Unknown
Elevation
Unknown
Doppler factor
Unknown
Orbital elements
Apogee altitude
1,096.708 km
Perigee altitude
1,093.771 km
Semi-major axis
7,473.377 km
Eccentricity
0.0002
Inclination
49.9903°
RAAN
233.9898°
Arg. of periapsis
327.4738°
True anomaly
32.61403°
Mean anomaly
32.6019°
Eccentric anomaly
32.60797°
Mean motion
3.35945 °/min
Orbital period
107.16 mins
BSTAR
-0.0000040235
Loading maneuver chart data...
Computing Atmospheric mass density...
Loading historical data...
Loading historical data...
Loading historical data...
Loading historical data...
Loading historical data...
Loading historical data...
Loading historical data...

Documentation

Showing up to 5 results
|